User: anonymous   Login
Location: Unspecified
(0.0000°N, 0.0000°E)
Time: 12:59:52
(UTC+00:00)
Language:

Snapshot - Orbit

View from above orbital plane
View from above orbital plane
View from above satellite
View from above satellite

Ground track
Ground track

The orbit data is extracted from the following two-line orbital elements,

1  1314U 65027A   17015.85511793 -.00000007 +00000-0 -50327-4 0  9992
2  1314 090.3105 280.4951 0028758 256.8747 151.6386 12.91748182186993
Epoch (UTC): 15 January 2017 20:31:22
Eccentricity: 0.0028758
inclination: 90.3105°
perigee height: 1272 km
apogee height: 1316 km
right ascension of ascending node: 280.4951°
argument of perigee: 256.8747°
revolutions per day: 12.91748182
mean anomaly at epoch: 151.6386°
orbit number at epoch: 18699

The dashed part of the orbit path shows where the satellite is in the earth's shadow,  

DLR